San Jose, Costa Rica

7:12 AM CST on April 26, 2017 (GMT -0600)
Juan Santamaria International

Weather History for MROC - January, 2014

Change the Weather History Date:

Monday, January 13, 2014

  Actual Average Record
Temperature  
Mean Temperature 75 °F -  
Max Temperature 83 °F 80 °F 85 °F (2013)
Min Temperature 67 °F 63 °F 60 °F (2012)
Cooling Degree Days 10    
Growing Degree Days 25 (Base 50)    
Moisture  
Dew Point 57 °F    
Average Humidity 56    
Maximum Humidity 73    
Minimum Humidity 28    
Precipitation  
Precipitation 0.00 in 0.01 in - ()
Sea Level Pressure  
Sea Level Pressure 29.96 in    
Wind  
Wind Speed 10 mph ()    
Max Wind Speed 16 mph    
Max Gust Speed 25 mph    
Visibility 8.0 miles    
Events      
Averages and records for this station are not official NWS values.
T = Trace of Precipitation, MM = Missing Value Source: Averaged Metar Reports

Daily Weather History Graph

Daily Weather History Graph

Search for Another Location

Airport or City:

Trip Planner

Search our weather history database for the weather conditions in past years. The results will help you decide how hot, cold, wet, or windy it might be!

Date:

Astronomy

Jan. 13, 2014 Rise Set
Actual Time 5:57 AM CST 5:33 PM CST
Civil Twilight 5:35 AM CST 5:56 PM CST
Nautical Twilight 5:09 AM CST 6:22 PM CST
Astronomical Twilight 4:43 AM CST 6:47 PM CST
Moon 3:44 PM CST (1/13) 3:49 AM CST (1/13)
Length of Visible Light 12h 20m
Length of Day
11h 35m
Waxing Gibbous, 95% of the Moon is Illuminated
Jan 13
Waxing Gibbous
Jan 15
Full
Jan 23
Last Quarter
Jan 30
New
Feb 6
First Quarter

Hourly Weather History & Observations

Time (CST) Temp. Heat Index Dew Point Humidity Pressure Visibility Wind Dir Wind Speed Gust Speed Precip Events Conditions
12:00 AM 70 °F - 59 °F 59% 29.85 in 12 mi East 8.1 mph - -   Scattered Clouds
12:00 AM 69.8 °F - 59.0 °F 68% 30.02 in 6.2 mi East 8.1 mph 19.6 mph N/A   Partly Cloudy
1:00 AM 68.0 °F - 59.0 °F 73% 29.99 in 6.2 mi East 16.1 mph - N/A   Partly Cloudy
2:00 AM 68.0 °F - 59.0 °F 73% 29.98 in 6.2 mi East 8.1 mph 19.6 mph N/A   Partly Cloudy
3:00 AM 67 °F - 60 °F 70% 29.82 in 12 mi ENE 15.0 mph - -   Scattered Clouds
3:00 AM 68.0 °F - 59.0 °F 73% 29.98 in - ENE 15.0 mph - N/A   Clear
4:00 AM 68.0 °F - 59.0 °F 73% 29.98 in - ENE 10.4 mph - N/A   Clear
5:00 AM 68.0 °F - 59.0 °F 73% 29.98 in 6.2 mi East 11.5 mph 23.0 mph N/A   Partly Cloudy
6:00 AM 69 °F - 57 °F 58% 29.84 in 12 mi East 11.5 mph - -   Scattered Clouds
6:00 AM 69.8 °F - 57.2 °F 64% 30.00 in 6.2 mi East 11.5 mph 23.0 mph N/A   Partly Cloudy
7:00 AM 71.6 °F - 55.4 °F 57% 30.02 in 6.2 mi East 12.7 mph 24.2 mph N/A   Partly Cloudy
8:00 AM 73.4 °F - 55.4 °F 53% 30.05 in 6.2 mi East 11.5 mph - N/A   Partly Cloudy
9:00 AM 75 °F - 55 °F 40% 29.88 in 12 mi East 13.8 mph - -   Scattered Clouds
9:00 AM 75.2 °F - 55.4 °F 50% 30.05 in - East 13.8 mph 25.3 mph N/A   Clear
10:00 AM 78.8 °F - 53.6 °F 42% 30.05 in - East 12.7 mph 24.2 mph N/A   Clear
11:00 AM 78.8 °F - 55.4 °F 44% 30.03 in - East 11.5 mph 25.3 mph N/A   Clear
12:00 PM 80 °F - 55 °F 32% 29.82 in 12 mi East 10.4 mph - -   Scattered Clouds
12:00 PM 80.6 °F 80.5 °F 55.4 °F 42% 30.01 in - East 10.4 mph - N/A   Clear
1:00 PM 82.4 °F 81.4 °F 53.6 °F 37% 29.98 in 6.2 mi East 10.4 mph - N/A   Partly Cloudy
2:00 PM 82.4 °F 81.7 °F 55.4 °F 39% 29.96 in 6.2 mi East 11.5 mph - N/A   Partly Cloudy
3:00 PM 82 °F - 54 °F 28% 29.77 in 12 mi East 13.8 mph - -   Scattered Clouds
3:00 PM 82.4 °F 81.4 °F 53.6 °F 37% 29.95 in 6.2 mi East 13.8 mph - N/A   Partly Cloudy
4:00 PM 80.6 °F 80.3 °F 53.6 °F 39% 29.95 in 6.2 mi East 12.7 mph - N/A   Partly Cloudy
5:00 PM 78.8 °F - 53.6 °F 42% 29.97 in 6.2 mi ESE 8.1 mph - N/A   Partly Cloudy
6:00 PM 72 °F - 58 °F 52% 29.83 in 12 mi ESE 15.7 mph - -   Scattered Clouds
6:00 PM 71.6 °F - 57.2 °F 60% 29.99 in 6.2 mi ESE 8.1 mph - N/A   Partly Cloudy
7:00 PM 69.8 °F - 59.0 °F 68% 30.01 in 6.2 mi ESE 9.2 mph - N/A   Partly Cloudy
8:00 PM 69.8 °F - 59.0 °F 68% 30.03 in 6.2 mi East 9.2 mph - N/A   Partly Cloudy
9:00 PM 68 °F - 59 °F 65% 29.88 in 12 mi ENE 8.1 mph - -   Scattered Clouds
9:00 PM 68.0 °F - 59.0 °F 73% 30.05 in 6.2 mi ENE 8.1 mph - N/A   Partly Cloudy
10:00 PM 68.0 °F - 57.2 °F 68% 30.05 in 6.2 mi East 10.4 mph - N/A   Partly Cloudy
11:00 PM 68.0 °F - 59.0 °F 73% 30.03 in 6.2 mi ESE 10.4 mph - N/A   Partly Cloudy